Location: La Sioule Rivi�re
(46.3664°N, 3.3197°E)
Time: 13:09:18
(UTC+00:00)

Cosmos 1697 Rocket - Pass Details

Date: 29 October 2020
Orbit: 831 x 845 km, 71.0° (Epoch: 23 November)

Event Time Altitude Azimuth Distance (km) Brightness Sun altitude
Rises 18:48:59 0° 216° (SW) 3,366 6.3 -23.4°
Reaches altitude 10° 18:51:26 10° 220° (SW) 2,437 5.5 -23.9°
Maximum altitude 18:56:57 60° 300° (WNW) 951 3.1 -24.8°
Enters shadow 19:01:35 15° 18° (NNE) 2,112 4.6 -25.6°
